Flag for Colombia Weather past 2 weeks in Bogota, Colombia

Now
61 °F

Partly sunny.


Feels Like: 61 °F
Forecast: N/A
Wind: 13 mph from Southeast

Location: Bogota / Eldorado

Current Time: Aug 4, 2015 at 6:57:39 PM

Latest Report: Aug 4, 2015 at 6:00 PM


Visibility: N/A

Pressure: 30.32 "Hg (22.25 "Hg at 2618m altitude)

Humidity: 63%

Dew point: 48 °F

Location of BogotaLocation

Historic Weather in Bogota — Graph

°F

Bogota temperature yesterday

Maximum temperature yesterday: 68 °F (at 12:00 PM)
Minimum temperature yesterday: 46 °F (at 3:00 AM)
Average temperature yesterday: 57 °F

Past Weeks' High & Low Weather Summary

 TemperatureHumidityPressure
High68 °F (Jul 26, 2:00 PM)94% (Jul 21, 12:00 AM)30.44 "Hg (Jul 21, 12:00 AM)
Low45 °F (Jul 24, 5:00 AM)43% (Jul 24, 2:00 PM)30.05 "Hg (Jul 31, 7:00 AM)
Average57 °F72%30.34 "Hg
* Reported Jul 20 5:00 PM — Aug 4 5:00 PM, Bogota, Weather by CustomWeather, © 2015

Note: Actual official high and low records may vary slightly from our data, if they occured in-between our weather recording intervals... More about our weather records

Advertising

Bogota weather history for previous 24 hours

 ConditionsComfort  
Time TempWeatherWind HumidityBarometerVisibility
5:00 PM
Tue, Aug 4
63 °FPartly sunny.8 mph52%30.30 "HgN/A
4:00 PM64 °FPartly sunny.14 mph52%30.28 "HgN/A
3:00 PM64 °FPartly sunny.14 mph52%30.29 "HgN/A
2:00 PM63 °FPartly sunny.14 mph56%30.31 "HgN/A
1:00 PM64 °FPartly sunny.13 mph52%30.33 "HgN/A
12:00 PM64 °FPartly sunny.16 mph56%30.36 "HgN/A
11:00 AM61 °FScattered showers. Partly sunny.14 mph68%30.37 "HgN/A
10:00 AM61 °FScattered showers. Partly sunny.14 mph59%30.38 "HgN/A
9:00 AM61 °FScattered showers. Partly sunny.9 mph59%30.37 "HgN/A
8:00 AM59 °FPartly sunny.7 mph63%30.37 "HgN/A
7:00 AM57 °FPartly sunny.5 mph67%30.33 "HgN/A
6:00 AM55 °FPartly sunny.3 mph72%30.33 "HgN/A
5:00 AM55 °FPassing clouds.6 mph67%30.30 "HgN/A
4:00 AM55 °FPassing clouds.9 mph72%30.30 "HgN/A
3:00 AM54 °FPassing clouds.8 mph72%30.32 "HgN/A
2:00 AM54 °FPassing clouds.5 mph82%30.33 "HgN/A
1:00 AM55 °FPassing clouds.5 mph77%30.35 "HgN/A
12:00 AM54 °FPassing clouds.2 mph82%30.37 "HgN/A
11:00 PM
Mon, Aug 3
54 °FPassing clouds.No wind82%30.38 "HgN/A
10:00 PM55 °FPassing clouds.5 mph77%30.37 "HgN/A
9:00 PM57 °FPassing clouds.7 mph63%30.35 "HgN/A
8:00 PM55 °FPassing clouds.5 mph77%30.32 "HgN/A
7:00 PM57 °FPassing clouds.8 mph72%30.29 "HgN/A
6:00 PM61 °FScattered clouds.12 mph63%30.28 "HgN/A
Weather by CustomWeather, © 2015

See weather overviewHow to use our weather pages